UAE65T OMDB-WMKK

Flight info

Callsign UAE65T
Flight time N/A
Altitude 35000
Route IVURO M677 LALDO B505 NADSO A777 VAXIM P307 PARAR N571 GURAS/N0483F370 N571 GUNIP Y347 KAKAK KAKAK1K
Aircraft B77W/H-SDE1E2E3FGHIJ2J3J4J5M1RWXY/LB1D1

Departure

Time 2026-04-24 10:16
Airport Dubai International Airport (OMDB)

Arrival

Time N/A
Airport Kuala Lumpur International Airport (WMKK)
Time Latitude Longitude Altitude Speed Heading
2026-04-24 09:30 25.24919 55.35830 47 ft 0 kts 31°
2026-04-24 09:56 25.24918 55.35829 48 ft 1 kts 31°
2026-04-24 09:57 25.24904 55.35820 48 ft 3 kts 31°
2026-04-24 09:57 25.24886 55.35808 48 ft 3 kts 31°
2026-04-24 09:57 25.24869 55.35796 48 ft 3 kts 31°
2026-04-24 09:57 25.24852 55.35785 48 ft 3 kts 31°
2026-04-24 09:58 25.24834 55.35773 48 ft 3 kts 31°
2026-04-24 09:58 25.24820 55.35763 48 ft 2 kts 30°
2026-04-24 09:58 25.24805 55.35754 48 ft 3 kts 12°
2026-04-24 09:58 25.24791 55.35752 48 ft 3 kts 344°
2026-04-24 09:59 25.24778 55.35757 48 ft 3 kts 313°
2026-04-24 09:59 25.24767 55.35773 48 ft 3 kts 299°
2026-04-24 09:59 25.24757 55.35792 48 ft 2 kts 301°
2026-04-24 09:59 25.24749 55.35807 48 ft 2 kts 301°
2026-04-24 10:00 25.24746 55.35813 48 ft 0 kts 301°
2026-04-24 10:02 25.24750 55.35806 48 ft 4 kts 301°
2026-04-24 10:02 25.24778 55.35755 48 ft 10 kts 301°
2026-04-24 10:02 25.24813 55.35694 48 ft 9 kts 305°
2026-04-24 10:03 25.24850 55.35638 48 ft 9 kts 306°
2026-04-24 10:03 25.24885 55.35583 48 ft 8 kts 304°
2026-04-24 10:03 25.24917 55.35530 48 ft 8 kts 301°
2026-04-24 10:03 25.24967 55.35439 48 ft 19 kts 301°
2026-04-24 10:04 25.25032 55.35322 48 ft 18 kts 301°
2026-04-24 10:04 25.25099 55.35214 48 ft 17 kts 308°
2026-04-24 10:04 25.25164 55.35112 48 ft 16 kts 302°
2026-04-24 10:04 25.25220 55.35010 48 ft 15 kts 301°
2026-04-24 10:05 25.25274 55.34914 48 ft 15 kts 302°
2026-04-24 10:05 25.25342 55.34837 48 ft 14 kts 331°
2026-04-24 10:05 25.25432 55.34814 48 ft 13 kts
2026-04-24 10:05 25.25517 55.34840 48 ft 13 kts 29°
2026-04-24 10:06 25.25592 55.34891 48 ft 12 kts 32°
2026-04-24 10:06 25.25731 55.34987 48 ft 11 kts 31°
2026-04-24 10:06 25.25797 55.35030 48 ft 11 kts 30°
2026-04-24 10:07 25.25870 55.35078 48 ft 17 kts 31°
2026-04-24 10:07 25.25947 55.35130 48 ft 20 kts 31°
2026-04-24 10:07 25.26061 55.35207 48 ft 17 kts 31°
2026-04-24 10:07 25.26113 55.35308 48 ft 9 kts 117°
2026-04-24 10:08 25.26071 55.35384 48 ft 13 kts 122°
2026-04-24 10:08 25.26040 55.35439 48 ft 12 kts 122°
2026-04-24 10:08 25.25982 55.35545 48 ft 12 kts 121°
2026-04-24 10:08 25.25954 55.35596 48 ft 12 kts 121°
2026-04-24 10:09 25.25913 55.35669 48 ft 11 kts 122°
2026-04-24 10:09 25.25863 55.35757 48 ft 21 kts 122°
2026-04-24 10:09 25.25767 55.35928 48 ft 26 kts 121°
2026-04-24 10:09 25.25679 55.36091 48 ft 23 kts 121°
2026-04-24 10:10 25.25597 55.36238 48 ft 22 kts 121°
2026-04-24 10:10 25.25520 55.36381 48 ft 21 kts 122°
2026-04-24 10:10 25.25444 55.36515 48 ft 20 kts 122°
2026-04-24 10:10 25.25371 55.36646 48 ft 19 kts 121°
2026-04-24 10:11 25.25302 55.36770 48 ft 18 kts 121°
2026-04-24 10:11 25.25239 55.36885 48 ft 17 kts 121°
2026-04-24 10:11 25.25178 55.36998 48 ft 16 kts 121°
2026-04-24 10:11 25.25119 55.37103 48 ft 15 kts 121°
2026-04-24 10:12 25.25058 55.37212 48 ft 21 kts 122°
2026-04-24 10:12 25.24982 55.37349 48 ft 20 kts 121°
2026-04-24 10:12 25.24910 55.37479 48 ft 19 kts 121°
2026-04-24 10:12 25.24841 55.37605 48 ft 19 kts 121°
2026-04-24 10:13 25.24776 55.37723 48 ft 16 kts 121°
2026-04-24 10:13 25.24722 55.37821 48 ft 14 kts 121°
2026-04-24 10:13 25.24678 55.37902 48 ft 9 kts 114°
2026-04-24 10:13 25.24687 55.37964 48 ft 8 kts 49°
2026-04-24 10:14 25.24734 55.37999 48 ft 8 kts 32°
2026-04-24 10:14 25.24784 55.38023 48 ft 8 kts
2026-04-24 10:14 25.24828 55.37999 48 ft 7 kts 298°
2026-04-24 10:14 25.24843 55.37969 48 ft 7 kts 297°
2026-04-24 10:15 25.24946 55.37771 48 ft 64 kts 302°
2026-04-24 10:15 25.25307 55.37123 48 ft 134 kts 301°
2026-04-24 10:15 25.25905 55.36040 63 ft 188 kts 303°
2026-04-24 10:15 25.26619 55.34747 528 ft 201 kts 301°
2026-04-24 10:16 25.27288 55.33423 1481 ft 194 kts 300°
2026-04-24 10:16 25.28006 55.32134 2112 ft 204 kts 304°
2026-04-24 10:16 25.28814 55.30763 2552 ft 219 kts 305°
2026-04-24 10:16 25.29991 55.29619 2954 ft 235 kts 329°
2026-04-24 10:17 25.31534 55.29170 3782 ft 234 kts 349°
2026-04-24 10:17 25.33181 55.29162 4435 ft 243 kts
2026-04-24 10:17 25.34884 55.29435 5046 ft 251 kts
2026-04-24 10:17 25.36624 55.29645 5721 ft 252 kts
2026-04-24 10:18 25.38393 55.29780 6405 ft 256 kts
2026-04-24 10:18 25.40081 55.30463 6934 ft 267 kts 27°
2026-04-24 10:18 25.41518 55.31847 7453 ft 280 kts 44°
2026-04-24 10:18 25.42831 55.33524 7853 ft 295 kts 50°
2026-04-24 10:19 25.43998 55.35260 8441 ft 302 kts 55°
2026-04-24 10:19 25.45301 55.37276 9174 ft 306 kts 52°
2026-04-24 10:19 25.46624 55.39108 9879 ft 310 kts 50°
2026-04-24 10:19 25.48010 55.40967 10610 ft 316 kts 49°
2026-04-24 10:20 25.49433 55.42836 10959 ft 334 kts 50°
2026-04-24 10:20 25.50873 55.44967 11338 ft 353 kts 57°
2026-04-24 10:20 25.51823 55.47568 11653 ft 372 kts 78°
2026-04-24 10:20 25.51915 55.50472 12105 ft 385 kts 99°
2026-04-24 10:21 25.51192 55.53349 12727 ft 392 kts 114°
2026-04-24 10:21 25.50052 55.56103 13352 ft 400 kts 118°
2026-04-24 10:21 25.48711 55.58852 14050 ft 406 kts 123°
2026-04-24 10:21 25.47189 55.61498 14855 ft 408 kts 126°
2026-04-24 10:22 25.45619 55.64110 15569 ft 414 kts 126°
2026-04-24 10:22 25.44163 55.66867 16239 ft 421 kts 120°
2026-04-24 10:22 25.42763 55.69716 16887 ft 423 kts 122°
2026-04-24 10:22 25.41482 55.72695 17428 ft 432 kts 112°
2026-04-24 10:23 25.40731 55.75949 18081 ft 438 kts 99°
2026-04-24 10:23 25.40520 55.79317 18711 ft 440 kts 94°
2026-04-24 10:23 25.40092 55.82682 19184 ft 445 kts 103°
2026-04-24 10:23 25.39254 55.85995 19752 ft 448 kts 109°
2026-04-24 10:24 25.38362 55.89326 20239 ft 454 kts 106°
2026-04-24 10:24 25.37602 55.92694 20773 ft 459 kts 104°
2026-04-24 10:24 25.36923 55.96164 21293 ft 464 kts 103°
2026-04-24 10:24 25.36211 55.99656 21797 ft 468 kts 104°
2026-04-24 10:25 25.35444 56.03154 22308 ft 472 kts 104°
2026-04-24 10:25 25.34670 56.06705 22809 ft 476 kts 104°
2026-04-24 10:25 25.33903 56.10264 23288 ft 480 kts 104°
2026-04-24 10:25 25.33147 56.13885 23761 ft 484 kts 102°
2026-04-24 10:26 25.32589 56.17582 24186 ft 489 kts 97°
2026-04-24 10:26 25.32232 56.21340 24624 ft 493 kts 95°
2026-04-24 10:26 25.31971 56.25124 25049 ft 497 kts 94°
2026-04-24 10:26 25.31684 56.28939 25590 ft 497 kts 95°
2026-04-24 10:27 25.31362 56.32761 25964 ft 502 kts 95°
2026-04-24 10:27 25.31039 56.36572 26409 ft 504 kts 94°
2026-04-24 10:27 25.30724 56.40430 26733 ft 509 kts 94°
2026-04-24 10:27 25.30546 56.44401 27103 ft 513 kts 90°
2026-04-24 10:28 25.30498 56.48328 27446 ft 517 kts 89°
2026-04-24 10:28 25.30440 56.52307 27829 ft 520 kts 90°
2026-04-24 10:28 25.30171 56.56310 28147 ft 524 kts 96°
2026-04-24 10:28 25.29520 56.60262 28475 ft 529 kts 103°
2026-04-24 10:29 25.28505 56.64197 28788 ft 533 kts 108°
2026-04-24 10:29 25.27271 56.68044 29102 ft 536 kts 111°
2026-04-24 10:29 25.25874 56.71835 29404 ft 540 kts 113°
2026-04-24 10:29 25.24365 56.75663 29716 ft 543 kts 114°
2026-04-24 10:30 25.22830 56.79548 30017 ft 546 kts 114°
2026-04-24 10:30 25.21336 56.83388 30362 ft 548 kts 113°
2026-04-24 10:30 25.19835 56.87285 30784 ft 548 kts 113°
2026-04-24 10:30 25.18352 56.91157 31172 ft 548 kts 113°
2026-04-24 10:31 25.16871 56.95027 31552 ft 549 kts 112°
2026-04-24 10:31 25.15402 56.98916 32011 ft 547 kts 112°
2026-04-24 10:31 25.13940 57.02787 32508 ft 545 kts 113°
2026-04-24 10:31 25.12481 57.06628 32987 ft 543 kts 114°
2026-04-24 10:32 25.11022 57.10458 33425 ft 541 kts 114°
2026-04-24 10:32 25.09561 57.14283 33880 ft 539 kts 114°
2026-04-24 10:32 25.08105 57.18091 34317 ft 537 kts 114°
2026-04-24 10:32 25.06658 57.21868 34709 ft 535 kts 115°
2026-04-24 10:33 25.05206 57.25655 34833 ft 536 kts 115°
2026-04-24 10:33 25.02323 57.33167 34821 ft 534 kts 115°
2026-04-24 10:34 24.99425 57.40703 34821 ft 534 kts 115°
2026-04-24 10:34 24.96519 57.48246 34820 ft 534 kts 115°
2026-04-24 10:35 24.93633 57.55780 34819 ft 535 kts 114°
2026-04-24 10:35 24.90716 57.63317 34815 ft 534 kts 114°
2026-04-24 10:36 24.87787 57.70858 34813 ft 534 kts 114°
2026-04-24 10:36 24.84865 57.78374 34813 ft 534 kts 114°
2026-04-24 10:37 24.81910 57.85865 34813 ft 534 kts 116°
2026-04-24 10:37 24.78657 57.93208 34813 ft 534 kts 118°
2026-04-24 10:38 24.75372 58.00534 34814 ft 532 kts 117°
2026-04-24 10:38 24.72143 58.07843 34814 ft 532 kts 117°
2026-04-24 10:39 24.68914 58.15170 34813 ft 533 kts 117°
2026-04-24 10:39 24.65725 58.22474 34814 ft 532 kts 117°
2026-04-24 10:40 24.62510 58.29802 34814 ft 532 kts 117°
2026-04-24 10:40 24.59287 58.37115 34814 ft 532 kts 117°
2026-04-24 10:41 24.56054 58.44439 34814 ft 532 kts 117°
2026-04-24 10:41 24.52844 58.51743 34814 ft 532 kts 117°
2026-04-24 10:42 24.49594 58.59063 34814 ft 532 kts 117°
2026-04-24 10:42 24.46352 58.66349 34812 ft 532 kts 117°
2026-04-24 10:43 24.43108 58.73633 34813 ft 531 kts 117°
2026-04-24 10:43 24.39870 58.80917 34812 ft 531 kts 117°
2026-04-24 10:44 24.36619 58.88218 34812 ft 532 kts 117°
2026-04-24 10:44 24.33393 58.95453 34812 ft 531 kts 117°
2026-04-24 10:45 24.30144 59.02729 34813 ft 531 kts 117°
2026-04-24 10:45 24.26892 59.10007 34813 ft 531 kts 117°
2026-04-24 10:46 24.23675 59.17267 34813 ft 531 kts 117°
2026-04-24 10:46 24.20434 59.24573 34813 ft 531 kts 117°
2026-04-24 10:47 24.17176 59.31838 34814 ft 531 kts 117°
2026-04-24 10:47 24.13907 59.39101 34813 ft 531 kts 117°
2026-04-24 10:48 24.10648 59.46338 34813 ft 531 kts 117°
2026-04-24 10:48 24.07374 59.53600 34813 ft 531 kts 117°
2026-04-24 10:49 24.04089 59.60841 34813 ft 531 kts 117°
2026-04-24 10:49 24.00803 59.68074 34814 ft 531 kts 117°
2026-04-24 10:50 23.97513 59.75306 34814 ft 531 kts 118°
2026-04-24 10:50 23.94221 59.82532 34813 ft 531 kts 118°
2026-04-24 10:51 23.90956 59.89763 34813 ft 531 kts 117°
2026-04-24 10:51 23.87676 59.96998 34822 ft 531 kts 117°
2026-04-24 10:52 23.84384 60.04224 34848 ft 531 kts 117°
2026-04-24 10:52 23.81087 60.11447 34849 ft 531 kts 117°
2026-04-24 10:53 23.77787 60.18661 34850 ft 531 kts 117°
2026-04-24 10:53 23.74485 60.25868 34852 ft 531 kts 117°
2026-04-24 10:54 23.71181 60.33069 34849 ft 531 kts 117°
2026-04-24 10:54 23.67884 60.40245 34852 ft 531 kts 117°
2026-04-24 10:55 23.65106 60.46280 34851 ft 531 kts 117°
2026-04-24 10:55 23.61256 60.54634 34849 ft 531 kts 117°
2026-04-24 10:56 23.58476 60.60659 34851 ft 531 kts 117°
2026-04-24 10:56 23.54610 60.69022 34849 ft 531 kts 117°
2026-04-24 10:57 23.51279 60.76217 34847 ft 531 kts 117°
2026-04-24 10:57 23.47946 60.83405 34847 ft 531 kts 117°
2026-04-24 10:58 23.45187 60.89374 34848 ft 531 kts 117°
2026-04-24 10:58 23.41858 60.96554 34847 ft 531 kts 117°
2026-04-24 10:59 23.38511 61.03725 34846 ft 531 kts 117°
2026-04-24 10:59 23.35166 61.10884 34842 ft 531 kts 118°
2026-04-24 11:00 23.31820 61.18040 34834 ft 531 kts 118°
2026-04-24 11:00 23.28563 61.25273 34818 ft 531 kts 116°
2026-04-24 11:01 23.25354 61.32521 34820 ft 531 kts 116°
2026-04-24 11:01 23.22132 61.39746 34821 ft 532 kts 116°
2026-04-24 11:02 23.18926 61.46993 34817 ft 531 kts 116°
2026-04-24 11:02 23.15704 61.54215 34817 ft 531 kts 117°
2026-04-24 11:03 23.12465 61.61433 34816 ft 531 kts 117°
2026-04-24 11:03 23.09224 61.68649 34816 ft 531 kts 117°
2026-04-24 11:04 23.05983 61.75864 34817 ft 531 kts 117°
2026-04-24 11:04 23.02734 61.83079 34817 ft 531 kts 117°
2026-04-24 11:05 22.99504 61.90240 34817 ft 531 kts 117°
2026-04-24 11:05 22.96252 61.97439 34816 ft 531 kts 117°
2026-04-24 11:06 22.92996 62.04635 34817 ft 531 kts 117°
2026-04-24 11:06 22.89757 62.11841 34817 ft 531 kts 117°
2026-04-24 11:07 22.84892 62.22639 34817 ft 531 kts 117°
2026-04-24 11:07 22.81634 62.29833 34817 ft 531 kts 117°
2026-04-24 11:08 22.78374 62.37016 34817 ft 531 kts 117°
2026-04-24 11:08 22.75107 62.44204 34816 ft 531 kts 117°
2026-04-24 11:09 22.71841 62.51379 34816 ft 531 kts 117°
2026-04-24 11:09 22.68571 62.58552 34817 ft 531 kts 117°
2026-04-24 11:10 22.65299 62.65720 34817 ft 531 kts 117°
2026-04-24 11:10 22.62014 62.72905 34817 ft 531 kts 117°
2026-04-24 11:11 22.58740 62.80059 34816 ft 531 kts 117°
2026-04-24 11:11 22.55469 62.87236 34816 ft 531 kts 117°
2026-04-24 11:12 22.52179 62.94392 34817 ft 531 kts 117°
2026-04-24 11:12 22.48882 63.01546 34817 ft 531 kts 117°
2026-04-24 11:13 22.45587 63.08689 34817 ft 531 kts 117°
2026-04-24 11:13 22.42323 63.15844 34816 ft 531 kts 116°
2026-04-24 11:14 22.39110 63.23038 34817 ft 531 kts 116°
2026-04-24 11:14 22.35888 63.30223 34817 ft 531 kts 117°
2026-04-24 11:15 22.32654 63.37413 34817 ft 531 kts 117°
2026-04-24 11:15 22.29420 63.44590 34816 ft 531 kts 117°
2026-04-24 11:16 22.26237 63.51723 34816 ft 531 kts 116°
2026-04-24 11:16 22.23017 63.58906 34817 ft 531 kts 117°
2026-04-24 11:17 22.19788 63.66076 34817 ft 531 kts 117°
2026-04-24 11:17 22.16552 63.73247 34817 ft 531 kts 117°
2026-04-24 11:18 22.13315 63.80407 34816 ft 531 kts 117°
2026-04-24 11:18 22.10070 63.87574 34816 ft 531 kts 117°
2026-04-24 11:19 22.06829 63.94721 34817 ft 531 kts 117°
2026-04-24 11:19 22.03580 64.01877 34817 ft 531 kts 117°
2026-04-24 11:20 22.00326 64.09033 34817 ft 531 kts 117°
2026-04-24 11:20 21.97077 64.16167 34816 ft 531 kts 117°
2026-04-24 11:21 21.93818 64.23313 34816 ft 531 kts 117°
2026-04-24 11:21 21.90556 64.30456 34817 ft 531 kts 117°
2026-04-24 11:22 21.87312 64.37551 34817 ft 531 kts 117°
2026-04-24 11:22 21.84040 64.44696 34817 ft 531 kts 117°
2026-04-24 11:23 21.80775 64.51816 34816 ft 531 kts 117°
2026-04-24 11:23 21.77504 64.58938 34816 ft 531 kts 117°
2026-04-24 11:24 21.74227 64.66065 34817 ft 531 kts 117°
2026-04-24 11:24 21.70949 64.73184 34817 ft 531 kts 117°
2026-04-24 11:25 21.67670 64.80294 34817 ft 531 kts 117°
2026-04-24 11:25 21.64380 64.87418 34816 ft 531 kts 117°
2026-04-24 11:26 21.61099 64.94516 34816 ft 531 kts 117°
2026-04-24 11:26 21.57803 65.01634 34817 ft 531 kts 117°
2026-04-24 11:27 21.54511 65.08732 34817 ft 531 kts 117°
2026-04-24 11:27 21.51214 65.15834 34817 ft 531 kts 117°
2026-04-24 11:28 21.47917 65.22926 34816 ft 531 kts 117°
2026-04-24 11:28 21.44612 65.30025 34817 ft 531 kts 117°
2026-04-24 11:29 21.41309 65.37109 34817 ft 531 kts 117°
2026-04-24 11:29 21.38007 65.44184 34817 ft 531 kts 117°
2026-04-24 11:30 21.34690 65.51281 34817 ft 531 kts 117°
2026-04-24 11:30 21.31375 65.58363 34816 ft 531 kts 117°
2026-04-24 11:31 21.28065 65.65426 34817 ft 531 kts 117°
2026-04-24 11:31 21.24778 65.72459 34817 ft 531 kts 117°
2026-04-24 11:32 21.21452 65.79545 34817 ft 531 kts 118°
2026-04-24 11:32 21.18107 65.86640 34817 ft 531 kts 118°
2026-04-24 11:33 21.14796 65.93654 34816 ft 531 kts 118°
2026-04-24 11:33 21.11457 66.00728 34817 ft 531 kts 117°
2026-04-24 11:34 21.08216 66.07830 34817 ft 531 kts 117°
2026-04-24 11:34 21.04992 66.14931 34817 ft 531 kts 117°
2026-04-24 11:35 21.01749 66.22043 34816 ft 531 kts 117°
2026-04-24 11:35 20.98502 66.29148 34816 ft 531 kts 117°
2026-04-24 11:36 20.95263 66.36258 34817 ft 531 kts 116°
2026-04-24 11:36 20.92039 66.43360 34817 ft 531 kts 117°
2026-04-24 11:37 20.88802 66.50453 34817 ft 531 kts 117°
2026-04-24 11:37 20.85550 66.57557 34816 ft 531 kts 117°
2026-04-24 11:38 20.82303 66.64637 34816 ft 531 kts 117°
2026-04-24 11:38 20.79050 66.71720 34817 ft 531 kts 117°
2026-04-24 11:39 20.75785 66.78820 34817 ft 531 kts 117°
2026-04-24 11:39 20.72525 66.85899 34817 ft 531 kts 117°
2026-04-24 11:40 20.69814 66.91780 34817 ft 531 kts 117°
2026-04-24 11:40 20.66548 66.98855 34817 ft 531 kts 117°
2026-04-24 11:41 20.63287 67.05910 34817 ft 531 kts 117°
2026-04-24 11:41 20.59482 67.14129 34817 ft 531 kts 117°
2026-04-24 11:42 20.56731 67.20065 34816 ft 531 kts 117°
2026-04-24 11:42 20.53453 67.27129 34817 ft 531 kts 117°
2026-04-24 11:43 20.50200 67.34129 34817 ft 531 kts 117°
2026-04-24 11:43 20.46897 67.41230 34817 ft 531 kts 117°
2026-04-24 11:44 20.43630 67.48242 34816 ft 531 kts 117°
2026-04-24 11:44 20.40346 67.55284 34816 ft 531 kts 117°
2026-04-24 11:45 20.37050 67.62340 34817 ft 531 kts 117°
2026-04-24 11:45 20.33758 67.69379 34817 ft 531 kts 117°
2026-04-24 11:46 20.30462 67.76418 34817 ft 531 kts 117°
2026-04-24 11:46 20.27160 67.83460 34816 ft 531 kts 117°
2026-04-24 11:47 20.23864 67.90481 34817 ft 531 kts 117°
2026-04-24 11:47 20.20551 67.97530 34817 ft 531 kts 117°
2026-04-24 11:48 20.17253 68.04538 34817 ft 531 kts 117°
2026-04-24 11:48 20.13940 68.11569 34817 ft 531 kts 117°
2026-04-24 11:49 20.10627 68.18590 34816 ft 531 kts 117°
2026-04-24 11:49 20.07311 68.25609 34817 ft 531 kts 117°
2026-04-24 11:50 20.03989 68.32631 34817 ft 531 kts 117°
2026-04-24 11:50 20.00668 68.39645 34817 ft 531 kts 117°
2026-04-24 11:51 19.97348 68.46646 34817 ft 531 kts 117°
2026-04-24 11:51 19.94022 68.53651 34816 ft 531 kts 118°
2026-04-24 11:52 19.90691 68.60658 34816 ft 531 kts 118°
2026-04-24 11:52 19.87375 68.67624 34817 ft 531 kts 118°
2026-04-24 11:53 19.84039 68.74624 34817 ft 531 kts 118°
2026-04-24 11:53 19.80713 68.81596 34817 ft 531 kts 118°
2026-04-24 11:54 19.77363 68.88609 34816 ft 531 kts 118°
2026-04-24 11:54 19.74027 68.95583 34817 ft 531 kts 118°
2026-04-24 11:55 19.70685 69.02562 34817 ft 531 kts 118°
2026-04-24 11:55 19.67344 69.09564 34817 ft 531 kts 118°
2026-04-24 11:56 19.63989 69.16549 34816 ft 531 kts 118°
2026-04-24 11:56 19.60633 69.23518 34816 ft 531 kts 118°
2026-04-24 11:57 19.57272 69.30491 34817 ft 531 kts 118°
2026-04-24 11:57 19.53931 69.37461 34817 ft 531 kts 117°
2026-04-24 11:58 19.50707 69.44515 34817 ft 531 kts 116°
2026-04-24 11:58 19.47487 69.51559 34816 ft 531 kts 117°
2026-04-24 11:59 19.44254 69.58595 34816 ft 531 kts 117°
2026-04-24 11:59 19.41016 69.65625 34817 ft 531 kts 117°
2026-04-24 12:00 19.37800 69.72648 34817 ft 531 kts 117°
2026-04-24 12:00 19.34591 69.79650 34817 ft 531 kts 117°
2026-04-24 12:01 19.31357 69.86676 34816 ft 531 kts 117°
2026-04-24 12:01 19.28119 69.93694 34817 ft 531 kts 117°
2026-04-24 12:02 19.24898 70.00664 34817 ft 531 kts 117°
2026-04-24 12:02 19.21638 70.07710 34816 ft 531 kts 117°
2026-04-24 12:03 19.18390 70.14720 34816 ft 531 kts 117°
2026-04-24 12:03 19.15128 70.21751 34817 ft 531 kts 117°
2026-04-24 12:04 19.11875 70.28756 34817 ft 531 kts 117°
2026-04-24 12:04 19.08621 70.35753 34817 ft 531 kts 117°
2026-04-24 12:05 19.05367 70.42744 34816 ft 531 kts 117°
2026-04-24 12:05 19.02101 70.49750 34817 ft 531 kts 117°
2026-04-24 12:06 18.98833 70.56753 34817 ft 531 kts 117°
2026-04-24 12:06 18.95570 70.63738 34817 ft 531 kts 117°
2026-04-24 12:07 18.92309 70.70709 34816 ft 531 kts 117°
2026-04-24 12:07 18.89045 70.77677 34817 ft 531 kts 117°
2026-04-24 12:08 18.85748 70.84708 34817 ft 531 kts 117°
2026-04-24 12:08 18.82489 70.91651 34817 ft 531 kts 117°
2026-04-24 12:09 18.79212 70.98622 34816 ft 531 kts 117°
2026-04-24 12:09 18.75933 71.05591 34816 ft 531 kts 117°
2026-04-24 12:10 18.72646 71.12569 34817 ft 531 kts 117°
2026-04-24 12:11 18.67711 71.23028 34817 ft 531 kts 117°
2026-04-24 12:11 18.64420 71.29993 34817 ft 531 kts 117°
2026-04-24 12:12 18.61126 71.36957 34817 ft 531 kts 117°
2026-04-24 12:12 18.57839 71.43897 34816 ft 531 kts 117°
2026-04-24 12:13 18.54531 71.50873 34816 ft 531 kts 117°
2026-04-24 12:13 18.51226 71.57835 34817 ft 530 kts 117°
2026-04-24 12:14 18.47947 71.64735 34817 ft 530 kts 117°
2026-04-24 12:14 18.44625 71.71716 34817 ft 530 kts 117°
2026-04-24 12:15 18.41346 71.78600 34816 ft 530 kts 117°
2026-04-24 12:15 18.38011 71.85595 34818 ft 530 kts 118°
2026-04-24 12:16 18.34771 71.92380 34736 ft 517 kts 118°
2026-04-24 12:16 18.31552 71.99116 34728 ft 513 kts 118°
2026-04-24 12:17 18.28322 72.05866 34728 ft 514 kts 118°
2026-04-24 12:17 18.25115 72.12562 34728 ft 514 kts 118°
2026-04-24 12:18 18.21897 72.19272 34728 ft 514 kts 118°
2026-04-24 12:18 18.18675 72.25983 34728 ft 514 kts 118°
2026-04-24 12:19 18.15450 72.32693 34728 ft 514 kts 118°
2026-04-24 12:19 18.12226 72.39395 34728 ft 514 kts 118°
2026-04-24 12:20 18.08993 72.46108 34728 ft 514 kts 118°
2026-04-24 12:20 18.05768 72.52796 34728 ft 514 kts 118°
2026-04-24 12:21 18.02527 72.59512 34728 ft 514 kts 118°
2026-04-24 12:21 17.99309 72.66171 34728 ft 514 kts 118°
2026-04-24 12:22 17.96074 72.72860 34728 ft 514 kts 118°
2026-04-24 12:22 17.92820 72.79580 34728 ft 514 kts 118°
2026-04-24 12:23 17.89572 72.86280 34728 ft 514 kts 118°
2026-04-24 12:23 17.86353 72.92924 34728 ft 514 kts 118°
2026-04-24 12:24 17.83118 72.99608 34728 ft 514 kts 118°
2026-04-24 12:24 17.79857 73.06304 34728 ft 514 kts 118°
2026-04-24 12:25 17.76606 73.12971 34728 ft 514 kts 118°
2026-04-24 12:25 17.73353 73.19638 34728 ft 514 kts 118°
2026-04-24 12:26 17.70075 73.26345 34913 ft 520 kts 118°
2026-04-24 12:26 17.68418 73.29722 35265 ft 519 kts 118°
2026-04-24 12:26 17.66771 73.33076 35762 ft 516 kts 118°
2026-04-24 12:26 17.65131 73.36417 36234 ft 512 kts 117°
2026-04-24 12:27 17.63501 73.39735 36558 ft 512 kts 117°
2026-04-24 12:27 17.61867 73.43060 36774 ft 513 kts 117°
2026-04-24 12:27 17.60789 73.45253 36793 ft 513 kts 117°
2026-04-24 12:28 17.57522 73.51895 36784 ft 511 kts 117°
2026-04-24 12:28 17.54283 73.58514 36794 ft 511 kts 117°
2026-04-24 12:29 17.51028 73.65152 36804 ft 512 kts 117°
2026-04-24 12:29 17.47761 73.71793 36803 ft 513 kts 117°
2026-04-24 12:30 17.44491 73.78428 36799 ft 512 kts 117°
2026-04-24 12:30 17.41226 73.85047 36806 ft 512 kts 117°
2026-04-24 12:31 17.37967 73.91647 36844 ft 514 kts 116°
2026-04-24 12:31 17.34690 73.98293 36842 ft 515 kts 116°
2026-04-24 12:32 17.31369 74.05015 36843 ft 515 kts 116°
2026-04-24 12:32 17.28073 74.11659 36846 ft 515 kts 116°
2026-04-24 12:33 17.24775 74.18299 36846 ft 514 kts 116°
2026-04-24 12:33 17.21492 74.24907 36846 ft 515 kts 116°
2026-04-24 12:34 17.18191 74.31559 36846 ft 515 kts 116°
2026-04-24 12:34 17.14892 74.38200 36847 ft 514 kts 116°
2026-04-24 12:35 17.11594 74.44829 36846 ft 514 kts 116°
2026-04-24 12:35 17.08292 74.51463 36846 ft 514 kts 116°
2026-04-24 12:36 17.04986 74.58099 36846 ft 514 kts 116°
2026-04-24 12:36 17.01701 74.64738 36846 ft 514 kts 116°
2026-04-24 12:37 16.98405 74.71366 36847 ft 515 kts 116°
2026-04-24 12:37 16.95101 74.77995 36846 ft 515 kts 116°
2026-04-24 12:38 16.91794 74.84622 36846 ft 515 kts 116°
2026-04-24 12:38 16.88479 74.91255 36846 ft 515 kts 116°
2026-04-24 12:39 16.81851 75.04500 36847 ft 515 kts 116°
2026-04-24 12:40 16.78530 75.11127 36846 ft 515 kts 116°
2026-04-24 12:40 16.75210 75.17752 36844 ft 515 kts 116°
2026-04-24 12:41 16.71900 75.24367 36844 ft 515 kts 116°
2026-04-24 12:41 16.68594 75.30936 36846 ft 515 kts 116°
2026-04-24 12:42 16.65259 75.37554 36846 ft 515 kts 116°
2026-04-24 12:42 16.61933 75.44151 36847 ft 515 kts 116°
2026-04-24 12:43 16.58668 75.50800 36846 ft 514 kts 114°
2026-04-24 12:43 16.55602 75.57514 36846 ft 514 kts 114°
2026-04-24 12:44 16.52489 75.64254 36846 ft 514 kts 114°
2026-04-24 12:44 16.49374 75.70969 36846 ft 514 kts 114°
2026-04-24 12:45 16.46272 75.77681 36847 ft 514 kts 114°
2026-04-24 12:45 16.43148 75.84381 36847 ft 514 kts 114°
2026-04-24 12:46 16.40016 75.91088 36819 ft 516 kts 114°
2026-04-24 12:46 16.36866 75.97828 36817 ft 517 kts 114°
2026-04-24 12:47 16.33733 76.04507 36817 ft 517 kts 114°
2026-04-24 12:47 16.30553 76.11240 36817 ft 517 kts 114°
2026-04-24 12:48 16.27383 76.17951 36817 ft 517 kts 114°
2026-04-24 12:48 16.24207 76.24668 36816 ft 517 kts 114°
2026-04-24 12:49 16.21031 76.31380 36816 ft 517 kts 114°
2026-04-24 12:49 16.17876 76.38093 36817 ft 517 kts 114°
2026-04-24 12:50 16.14704 76.44815 36817 ft 517 kts 114°
2026-04-24 12:50 16.11529 76.51525 36817 ft 517 kts 114°
2026-04-24 12:51 16.08354 76.58225 36817 ft 517 kts 114°
2026-04-24 12:51 16.05179 76.64919 36816 ft 517 kts 114°
2026-04-24 12:52 16.01992 76.71629 36816 ft 517 kts 114°
2026-04-24 12:52 15.98807 76.78330 36817 ft 517 kts 114°
2026-04-24 12:53 15.95624 76.85021 36817 ft 517 kts 114°
2026-04-24 12:53 15.92437 76.91714 36817 ft 517 kts 114°
2026-04-24 12:54 15.89262 76.98373 36816 ft 517 kts 114°
2026-04-24 12:54 15.86071 77.05064 36816 ft 517 kts 114°
2026-04-24 12:55 15.82884 77.11765 36817 ft 517 kts 114°
2026-04-24 12:55 15.79686 77.18447 36817 ft 517 kts 114°
2026-04-24 12:56 15.76494 77.25108 36817 ft 517 kts 115°
2026-04-24 12:56 15.73283 77.31804 36817 ft 517 kts 115°
2026-04-24 12:57 15.70092 77.38475 36816 ft 517 kts 114°
2026-04-24 12:57 15.66893 77.45177 36816 ft 517 kts 114°
2026-04-24 12:58 15.63699 77.51859 36817 ft 517 kts 114°
2026-04-24 12:58 15.60511 77.58524 36817 ft 517 kts 114°
2026-04-24 12:59 15.57307 77.65220 36817 ft 517 kts 114°
2026-04-24 12:59 15.54118 77.71912 36817 ft 517 kts 114°
2026-04-24 13:00 15.50933 77.78578 36816 ft 517 kts 114°
2026-04-24 13:00 15.47741 77.85268 36817 ft 517 kts 114°
2026-04-24 13:01 15.44609 77.91795 37087 ft 474 kts 117°
2026-04-24 13:01 15.43155 77.94820 36870 ft 464 kts 117°
2026-04-24 13:01 15.41729 77.97784 36810 ft 459 kts 117°
2026-04-24 13:02 15.38904 78.03657 36772 ft 453 kts 117°
2026-04-24 13:02 15.36089 78.09504 36765 ft 454 kts 117°
2026-04-24 13:03 15.33242 78.15352 36763 ft 455 kts 117°
2026-04-24 13:03 15.30374 78.21199 36764 ft 455 kts 117°
2026-04-24 13:04 15.27508 78.27043 36757 ft 455 kts 117°
2026-04-24 13:04 15.24657 78.32855 36746 ft 455 kts 117°
2026-04-24 13:05 15.21771 78.38736 36745 ft 455 kts 117°
2026-04-24 13:05 15.18911 78.44583 36749 ft 455 kts 117°
2026-04-24 13:06 15.16055 78.50432 36749 ft 455 kts 117°
2026-04-24 13:06 15.13209 78.56240 36742 ft 455 kts 117°
2026-04-24 13:07 15.10333 78.62101 36681 ft 462 kts 114°
2026-04-24 13:07 15.07380 78.68109 36739 ft 474 kts 113°
2026-04-24 13:08 15.04445 78.74077 36736 ft 459 kts 117°
2026-04-24 13:08 15.01527 78.80003 36724 ft 467 kts 113°
2026-04-24 13:09 14.97127 78.88932 36735 ft 458 kts 117°
2026-04-24 13:09 14.94245 78.94774 36735 ft 455 kts 117°
2026-04-24 13:10 14.91339 79.00659 36745 ft 462 kts 118°
2026-04-24 13:10 14.88435 79.06536 36728 ft 457 kts 118°
2026-04-24 13:11 14.85548 79.12373 36728 ft 455 kts 116°
2026-04-24 13:11 14.82627 79.18276 36714 ft 467 kts 115°
2026-04-24 13:12 14.79628 79.24331 36748 ft 475 kts 118°
2026-04-24 13:12 14.76681 79.30278 36731 ft 462 kts 118°
2026-04-24 13:13 14.73772 79.36141 36728 ft 456 kts 118°
2026-04-24 13:13 14.70878 79.41971 36728 ft 455 kts 118°
2026-04-24 13:14 14.68473 79.46812 36728 ft 456 kts 118°
2026-04-24 13:14 14.65574 79.52644 36728 ft 456 kts 118°
2026-04-24 13:15 14.62677 79.58467 36728 ft 456 kts 118°
2026-04-24 13:15 14.59775 79.64295 36728 ft 456 kts 118°
2026-04-24 13:16 14.56872 79.70122 36728 ft 456 kts 118°
2026-04-24 13:16 14.53988 79.75904 36728 ft 456 kts 118°
2026-04-24 13:17 14.51082 79.81728 36728 ft 456 kts 118°
2026-04-24 13:17 14.48183 79.87533 36728 ft 456 kts 118°
2026-04-24 13:18 14.45268 79.93367 36728 ft 456 kts 118°
2026-04-24 13:18 14.42361 79.99178 36728 ft 456 kts 118°
2026-04-24 13:19 14.39449 80.04995 36728 ft 456 kts 118°
2026-04-24 13:19 14.36554 80.10776 36728 ft 456 kts 118°
2026-04-24 13:20 14.33637 80.16594 36728 ft 456 kts 118°
2026-04-24 13:20 14.30721 80.22408 36728 ft 456 kts 118°
2026-04-24 13:21 14.27804 80.28219 36728 ft 456 kts 118°
2026-04-24 13:21 14.24904 80.33992 36728 ft 456 kts 118°
2026-04-24 13:22 14.21988 80.39791 36728 ft 456 kts 118°
2026-04-24 13:22 14.19069 80.45594 36728 ft 456 kts 118°
2026-04-24 13:23 14.16144 80.51402 36728 ft 456 kts 118°
2026-04-24 13:23 14.13246 80.57175 36728 ft 456 kts 118°
2026-04-24 13:24 14.10321 80.62981 36728 ft 456 kts 118°
2026-04-24 13:24 14.07390 80.68782 36728 ft 456 kts 118°
2026-04-24 13:25 14.04464 80.74569 36728 ft 456 kts 118°
2026-04-24 13:25 14.01531 80.80367 36728 ft 456 kts 118°
2026-04-24 13:26 13.98643 80.86142 36728 ft 456 kts 117°
2026-04-24 13:26 13.95815 80.91990 36728 ft 456 kts 117°
2026-04-24 13:27 13.92978 80.97835 36728 ft 456 kts 117°
2026-04-24 13:27 13.90138 81.03674 36728 ft 456 kts 117°
2026-04-24 13:28 13.87286 81.09529 36728 ft 456 kts 117°
2026-04-24 13:28 13.84467 81.15317 36728 ft 456 kts 117°
2026-04-24 13:29 13.81640 81.21169 36728 ft 456 kts 117°
2026-04-24 13:29 13.78790 81.27015 36728 ft 456 kts 117°
2026-04-24 13:30 13.75940 81.32849 36728 ft 456 kts 117°
2026-04-24 13:30 13.73090 81.38678 36728 ft 456 kts 117°
2026-04-24 13:31 13.70240 81.44506 36728 ft 456 kts 117°
2026-04-24 13:31 13.67407 81.50305 36728 ft 456 kts 117°
2026-04-24 13:32 13.64559 81.56128 36728 ft 456 kts 117°
2026-04-24 13:32 13.61706 81.61958 36728 ft 456 kts 117°
2026-04-24 13:33 13.58853 81.67782 36728 ft 456 kts 117°
2026-04-24 13:33 13.55996 81.73609 36728 ft 456 kts 117°
2026-04-24 13:34 13.53162 81.79410 36728 ft 456 kts 117°
2026-04-24 13:34 13.50320 81.85234 36728 ft 456 kts 117°
2026-04-24 13:35 13.47464 81.91069 36728 ft 456 kts 117°
2026-04-24 13:35 13.44626 81.96858 36728 ft 456 kts 117°
2026-04-24 13:36 13.41767 82.02684 36728 ft 456 kts 117°
2026-04-24 13:36 13.38905 82.08510 36728 ft 456 kts 117°
2026-04-24 13:37 13.36041 82.14337 36728 ft 456 kts 117°
2026-04-24 13:37 13.33199 82.20115 36728 ft 456 kts 117°
2026-04-24 13:38 13.30335 82.25932 36728 ft 456 kts 117°
2026-04-24 13:38 13.27474 82.31741 36728 ft 456 kts 117°
2026-04-24 13:39 13.24610 82.37552 36728 ft 456 kts 117°
2026-04-24 13:39 13.21744 82.43363 36728 ft 456 kts 117°
2026-04-24 13:40 13.18880 82.49163 36728 ft 456 kts 117°
2026-04-24 13:40 13.16012 82.54969 36728 ft 456 kts 117°
2026-04-24 13:41 13.13157 82.60746 36728 ft 456 kts 117°
2026-04-24 13:41 13.10290 82.66543 36728 ft 456 kts 117°
2026-04-24 13:42 13.07413 82.72354 36728 ft 456 kts 118°
2026-04-24 13:42 13.04557 82.78122 36728 ft 456 kts 118°
2026-04-24 13:43 13.01668 82.83951 36728 ft 456 kts 118°
2026-04-24 13:43 12.98809 82.89714 36728 ft 456 kts 118°
2026-04-24 13:44 12.95936 82.95504 36728 ft 456 kts 118°
2026-04-24 13:44 12.93057 83.01300 36728 ft 456 kts 118°
2026-04-24 13:45 12.90178 83.07093 36728 ft 456 kts 118°
2026-04-24 13:45 12.87288 83.12905 36728 ft 456 kts 118°
2026-04-24 13:46 12.84405 83.18700 36728 ft 456 kts 118°
2026-04-24 13:46 12.81543 83.24446 36728 ft 456 kts 118°
2026-04-24 13:47 12.78664 83.30244 36728 ft 456 kts 118°
2026-04-24 13:47 12.75778 83.36033 36728 ft 456 kts 118°
2026-04-24 13:48 12.72889 83.41817 36728 ft 456 kts 118°
2026-04-24 13:48 12.69997 83.47603 36728 ft 456 kts 118°
2026-04-24 13:49 12.67111 83.53375 36728 ft 456 kts 118°
2026-04-24 13:49 12.64266 83.59149 36728 ft 456 kts 117°
2026-04-24 13:50 12.61467 83.64989 36728 ft 456 kts 117°
2026-04-24 13:50 12.58662 83.70824 36728 ft 456 kts 117°
2026-04-24 13:51 12.55854 83.76655 36728 ft 456 kts 117°
2026-04-24 13:51 12.53064 83.82438 36728 ft 456 kts 117°
2026-04-24 13:52 12.50250 83.88274 36728 ft 456 kts 117°
2026-04-24 13:52 12.47449 83.94110 36728 ft 456 kts 117°
2026-04-24 13:53 12.44659 83.99906 36728 ft 456 kts 117°
2026-04-24 13:53 12.41850 84.05728 36728 ft 456 kts 117°
2026-04-24 13:54 12.39042 84.11543 36728 ft 456 kts 117°
2026-04-24 13:54 12.36229 84.17363 36728 ft 456 kts 117°
2026-04-24 13:55 12.33417 84.23177 36728 ft 456 kts 117°
2026-04-24 13:55 12.30606 84.28984 36728 ft 456 kts 117°
2026-04-24 13:56 12.27804 84.34770 36728 ft 456 kts 117°
2026-04-24 13:56 12.24985 84.40586 36728 ft 456 kts 117°
2026-04-24 13:57 12.22168 84.46395 36728 ft 456 kts 117°
2026-04-24 13:57 12.19340 84.52220 36728 ft 456 kts 117°
2026-04-24 13:58 12.16534 84.58000 36728 ft 456 kts 117°
2026-04-24 13:58 12.13714 84.63804 36728 ft 456 kts 117°
2026-04-24 13:59 12.10887 84.69618 36728 ft 456 kts 117°
2026-04-24 13:59 12.08058 84.75431 36728 ft 456 kts 117°
2026-04-24 14:00 12.05249 84.81200 36728 ft 456 kts 117°
2026-04-24 14:00 12.02421 84.87006 36728 ft 456 kts 117°
2026-04-24 14:01 11.99594 84.92805 36728 ft 456 kts 117°
2026-04-24 14:01 11.97240 84.97632 36728 ft 456 kts 117°
2026-04-24 14:02 11.93948 85.04376 36728 ft 456 kts 117°
2026-04-24 14:02 11.91574 85.09237 36728 ft 456 kts 117°
2026-04-24 14:03 11.88755 85.15006 36728 ft 456 kts 117°
2026-04-24 14:03 11.85455 85.21754 36728 ft 456 kts 117°
2026-04-24 14:04 11.83082 85.26605 36728 ft 456 kts 117°
2026-04-24 14:04 11.80265 85.32359 36728 ft 456 kts 117°
2026-04-24 14:05 11.77428 85.38150 36728 ft 456 kts 117°
2026-04-24 14:05 11.74588 85.43944 36728 ft 456 kts 117°
2026-04-24 14:06 11.71749 85.49732 36728 ft 456 kts 117°
2026-04-24 14:06 11.68912 85.55513 36728 ft 456 kts 117°
2026-04-24 14:07 11.66067 85.61306 36728 ft 456 kts 117°
2026-04-24 14:07 11.63222 85.67097 36728 ft 456 kts 117°
2026-04-24 14:08 11.60392 85.72852 36728 ft 456 kts 117°
2026-04-24 14:08 11.57549 85.78630 36728 ft 456 kts 117°
2026-04-24 14:09 11.54701 85.84416 36728 ft 456 kts 117°
2026-04-24 14:09 11.51856 85.90192 36728 ft 456 kts 117°
2026-04-24 14:10 11.49000 85.95986 36728 ft 456 kts 117°
2026-04-24 14:10 11.46172 86.01720 36728 ft 456 kts 117°
2026-04-24 14:11 11.43324 86.07492 36728 ft 456 kts 117°
2026-04-24 14:12 11.39091 86.16064 36728 ft 456 kts 117°
2026-04-24 14:12 11.36238 86.21838 36728 ft 456 kts 117°
2026-04-24 14:13 11.33416 86.27544 36728 ft 456 kts 117°
2026-04-24 14:13 11.30556 86.33323 36728 ft 456 kts 117°
2026-04-24 14:14 11.27702 86.39089 36728 ft 456 kts 117°
2026-04-24 14:14 11.23413 86.47747 36728 ft 456 kts 117°
2026-04-24 14:15 11.20569 86.53483 36728 ft 456 kts 117°
2026-04-24 14:15 11.17706 86.59255 36728 ft 456 kts 117°
2026-04-24 14:16 11.14845 86.65017 36728 ft 456 kts 117°
2026-04-24 14:17 11.10563 86.73638 36728 ft 456 kts 117°
2026-04-24 14:17 11.06269 86.82275 36728 ft 456 kts 117°
2026-04-24 14:18 11.03402 86.88037 36728 ft 456 kts 117°
2026-04-24 14:18 11.00541 86.93785 36728 ft 456 kts 117°
2026-04-24 14:19 10.97667 86.99554 36729 ft 456 kts 117°
2026-04-24 14:19 10.94799 87.05310 36728 ft 456 kts 117°
2026-04-24 14:20 10.91940 87.11043 36728 ft 456 kts 117°
2026-04-24 14:20 10.89046 87.16843 36728 ft 456 kts 118°
2026-04-24 14:21 10.86192 87.22561 36728 ft 456 kts 118°
2026-04-24 14:21 10.83317 87.28315 36728 ft 456 kts 118°
2026-04-24 14:22 10.80443 87.34066 36728 ft 456 kts 118°
2026-04-24 14:23 10.76127 87.42697 36728 ft 456 kts 118°
2026-04-24 14:23 10.73254 87.48436 36728 ft 456 kts 118°
2026-04-24 14:24 10.70391 87.54154 36728 ft 456 kts 118°
2026-04-24 14:24 10.67501 87.59922 36728 ft 456 kts 118°
2026-04-24 14:25 10.64625 87.65659 36728 ft 456 kts 118°
2026-04-24 14:25 10.61742 87.71406 36728 ft 456 kts 118°
2026-04-24 14:26 10.58859 87.77151 36728 ft 456 kts 118°
2026-04-24 14:26 10.55975 87.82895 36728 ft 456 kts 118°
2026-04-24 14:27 10.53105 87.88608 36728 ft 456 kts 118°
2026-04-24 14:27 10.50219 87.94349 36728 ft 456 kts 118°
2026-04-24 14:28 10.47331 88.00090 36728 ft 456 kts 118°
2026-04-24 14:28 10.44461 88.05795 36728 ft 456 kts 118°
2026-04-24 14:29 10.41572 88.11532 36728 ft 456 kts 118°
2026-04-24 14:29 10.38691 88.17252 36728 ft 456 kts 118°
2026-04-24 14:30 10.36292 88.22011 36728 ft 456 kts 118°
2026-04-24 14:30 10.32904 88.28747 36728 ft 456 kts 118°
2026-04-24 14:31 10.30011 88.34481 36728 ft 456 kts 118°
2026-04-24 14:31 10.27115 88.40211 36728 ft 456 kts 118°
2026-04-24 14:32 10.24242 88.45896 36728 ft 456 kts 118°
2026-04-24 14:32 10.21324 88.51665 36728 ft 456 kts 118°
2026-04-24 14:33 10.18516 88.57435 36728 ft 456 kts 116°
2026-04-24 14:33 10.15887 88.63253 36728 ft 456 kts 115°
2026-04-24 14:34 10.13226 88.69116 36728 ft 456 kts 116°
2026-04-24 14:34 10.10550 88.74968 36728 ft 456 kts 116°
2026-04-24 14:35 10.07868 88.80813 36728 ft 456 kts 116°
2026-04-24 14:35 10.05203 88.86621 36728 ft 456 kts 116°
2026-04-24 14:36 10.02530 88.92460 36728 ft 456 kts 116°
2026-04-24 14:36 9.99850 88.98301 36728 ft 456 kts 116°
2026-04-24 14:37 9.97173 89.04125 36728 ft 456 kts 116°
2026-04-24 14:37 9.94489 89.09959 36728 ft 456 kts 116°
2026-04-24 14:38 9.91793 89.15813 36728 ft 456 kts 116°
2026-04-24 14:38 9.89122 89.21612 36728 ft 456 kts 116°
2026-04-24 14:39 9.86433 89.27445 36728 ft 456 kts 116°
2026-04-24 14:39 9.83747 89.33269 36728 ft 456 kts 116°
2026-04-24 14:40 9.81064 89.39083 36727 ft 456 kts 116°
2026-04-24 14:40 9.78374 89.44911 36728 ft 456 kts 116°
2026-04-24 14:41 9.75679 89.50744 36728 ft 456 kts 116°
2026-04-24 14:41 9.72985 89.56574 36728 ft 456 kts 116°
2026-04-24 14:42 9.70746 89.61417 36728 ft 456 kts 116°
2026-04-24 14:42 9.67612 89.68190 36728 ft 456 kts 116°
2026-04-24 14:43 9.64915 89.74017 36728 ft 458 kts 116°
2026-04-24 14:43 9.62207 89.79864 36728 ft 459 kts 116°
2026-04-24 14:44 9.59491 89.85725 36728 ft 458 kts 116°
2026-04-24 14:44 9.56782 89.91567 36728 ft 458 kts 116°
2026-04-24 14:45 9.54066 89.97423 36728 ft 458 kts 116°
2026-04-24 14:45 9.51357 90.03259 36728 ft 458 kts 116°
2026-04-24 14:46 9.48662 90.09064 36728 ft 458 kts 116°
2026-04-24 14:46 9.45943 90.14916 36728 ft 458 kts 116°
2026-04-24 14:47 9.43694 90.19756 36728 ft 458 kts 116°
2026-04-24 14:47 9.40516 90.26589 36728 ft 458 kts 116°
2026-04-24 14:48 9.38251 90.31457 36728 ft 458 kts 116°
2026-04-24 14:48 9.35089 90.38249 36728 ft 458 kts 116°
2026-04-24 14:49 9.32369 90.44089 36728 ft 458 kts 116°
2026-04-24 14:49 9.30108 90.48941 36728 ft 458 kts 116°
2026-04-24 14:50 9.27386 90.54780 36728 ft 458 kts 116°
2026-04-24 14:50 9.24667 90.60610 36728 ft 458 kts 116°
2026-04-24 14:51 9.21940 90.66453 36728 ft 458 kts 116°
2026-04-24 14:51 9.19220 90.72279 36728 ft 458 kts 116°
2026-04-24 14:52 9.16513 90.78074 36728 ft 458 kts 116°
2026-04-24 14:52 9.13781 90.83919 36728 ft 458 kts 116°
2026-04-24 14:53 9.11049 90.89762 36728 ft 458 kts 116°
2026-04-24 14:53 9.08325 90.95585 36728 ft 458 kts 116°
2026-04-24 14:54 9.05610 91.01385 36728 ft 458 kts 116°
2026-04-24 14:54 9.02877 91.07222 36728 ft 458 kts 116°
2026-04-24 14:55 9.00148 91.13046 36728 ft 458 kts 116°
2026-04-24 14:55 8.97415 91.18878 36728 ft 458 kts 116°
2026-04-24 14:56 8.94698 91.24671 36728 ft 458 kts 116°
2026-04-24 14:56 8.91961 91.30504 36728 ft 458 kts 116°
2026-04-24 14:57 8.89233 91.36315 36728 ft 458 kts 116°
2026-04-24 14:57 8.86499 91.42137 36728 ft 458 kts 116°
2026-04-24 14:58 8.83780 91.47926 36728 ft 458 kts 116°
2026-04-24 14:58 8.81044 91.53745 36728 ft 458 kts 116°
2026-04-24 14:59 8.78304 91.59573 36728 ft 458 kts 116°
2026-04-24 14:59 8.75568 91.65386 36728 ft 458 kts 116°
2026-04-24 15:00 8.72831 91.71207 36728 ft 458 kts 116°
2026-04-24 15:00 8.70097 91.77024 36728 ft 458 kts 116°
2026-04-24 15:01 8.67353 91.82844 36728 ft 458 kts 116°
2026-04-24 15:01 8.64628 91.88620 36728 ft 458 kts 116°
2026-04-24 15:02 8.61884 91.94434 36728 ft 458 kts 116°
2026-04-24 15:02 8.59142 92.00247 36728 ft 458 kts 116°
2026-04-24 15:03 8.56521 92.06106 36728 ft 458 kts 115°
2026-04-24 15:03 8.53928 92.12002 36728 ft 458 kts 115°
2026-04-24 15:04 8.51327 92.17883 36728 ft 458 kts 115°
2026-04-24 15:04 8.48731 92.23738 36728 ft 458 kts 115°
2026-04-24 15:05 8.46123 92.29611 36728 ft 458 kts 115°
2026-04-24 15:05 8.43521 92.35486 36728 ft 458 kts 115°
2026-04-24 15:06 8.40932 92.41328 36728 ft 458 kts 115°